This is the latest recevied weather packets stored in our database for station/object W8LMG. If no packets are shown the sender has not sent any weather packets the latest 10 day(s).
| Time | Temp. | Humidity | Pressure | Rain* | Wind** | Luminosity | Snow |
|---|---|---|---|---|---|---|---|
| 1777936502 | 15.56° C | 75% | 1012.6 hPa | 0 mm | - | 42 W/m² | - |
| 1777936199 | 15.56° C | 76% | 1012.7 hPa | 0 mm | - | 49 W/m² | - |
| 1777935895 | 15.56° C | 74% | 1012.6 hPa | 0 mm | - | 50 W/m² | - |
| 1777935594 | 15.56° C | 74% | 1012.6 hPa | 0 mm | - | 41 W/m² | - |
| 1777935291 | 16.11° C | 75% | 1012.8 hPa | 0 mm | - | 40 W/m² | - |
| 1777934988 | 16.11° C | 73% | 1012.8 hPa | 0 mm | - | 64 W/m² | - |
| 1777934684 | 16.67° C | 71% | 1012.8 hPa | 0 mm | - | 69 W/m² | - |
| 1777934381 | 17.22° C | 71% | 1013 hPa | 0 mm | - | 120 W/m² | - |
| 1777934077 | 16.67° C | 72% | 1012.8 hPa | 0 mm | - | 132 W/m² | - |
| 1777933773 | 16.67° C | 73% | 1012.9 hPa | 0 mm | - | 145 W/m² | - |
| 1777933471 | 17.22° C | 72% | 1012.8 hPa | 0 mm | - | 153 W/m² | - |
| 1777933169 | 17.22° C | 70% | 1013 hPa | 0 mm | - | 170 W/m² | - |
| 1777932865 | 17.78° C | 69% | 1013.1 hPa | 0 mm | - | 184 W/m² | - |
| 1777932562 | 17.22° C | 70% | 1013.1 hPa | 0 mm | - | 197 W/m² | - |
| 1777932259 | 16.67° C | 68% | 1013.2 hPa | 0 mm | - | 214 W/m² | - |
| 1777931956 | 16.67° C | 68% | 1013.1 hPa | 0 mm | - | 229 W/m² | - |
| 1777931653 | 16.11° C | 72% | 1013.2 hPa | 0 mm | - | 259 W/m² | - |
| 1777931349 | 15.56° C | 72% | 1013.3 hPa | 0 mm | - | 190 W/m² | - |
| 1777931046 | 15.56° C | 74% | 1013.3 hPa | 0 mm | - | 138 W/m² | - |
| 1777930743 | 15.56° C | 73% | 1013.4 hPa | 0 mm | - | 75 W/m² | - |
| 1777930438 | 16.11° C | 70% | 1013.3 hPa | 0 mm | - | 93 W/m² | - |
| 1777930136 | 15.56° C | 72% | 1013.2 hPa | 0 mm | - | 70 W/m² | - |
| 1777929831 | 15.56° C | 72% | 1013 hPa | 0 mm | - | 78 W/m² | - |
| 1777929529 | 15.56° C | 74% | 1013.1 hPa | 0 mm | - | 88 W/m² | - |
| 1777929225 | 15.56° C | 73% | 1013.1 hPa | 0 mm | - | 69 W/m² | - |
* Rain latest hour (hover to see other rain measurements)
** Current wind speed in m/s (hover to see current wind gust speed)